STARLINK-2290

Last updated on Sat Apr 24 2021 00:02:02 GMT+0000 (Coordinated Universal Time)

1 47994U 21024T 21113.25001157 .00074755 00000-0 53319-3 0 9993 2 47994 53.0487 55.6947 0001193 73.8644 80.9024 15.73157815 1821

Satellite not in orbit